Location: Igri�s
(42.2144°N, 0.4320°W)
Time: 09:58:01
(UTC+00:00)

Cosmos 1725 Rocket - Pass Details

Date: 13 August 2020
Orbit: 961 x 991 km, 82.9° (Epoch: 18 September)

Event Time Altitude Azimuth Distance (km) Brightness Sun altitude
Exits shadow 22:49:23 64° 262° (W) 1,088 4.1 -30.8°
Maximum altitude 22:49:43 65° 280° (W) 1,080 4.2 -30.8°
Drops below altitude 10° 22:56:01 10° 2° (N) 2,763 7.1 -31.2°
Sets 22:58:35 0° 6° (N) 3,716 8.0 -31.4°
